#timestamp,LO_Frequency,Hit,StdDev 
1604440815.5,286047002.6,Y
1604440835.3,286047000.3,P
1604440855.2,286047000.6,N
1604440875.9,286047000.5,N
1604440895.7,286047002.8,Y
1604440915.6,286046998.4,P
1604440935.4,286046999.6,N
1604440955.2,286046998.9,N
1604440975.1,286046999.2,N
1604440976.0,286046999.2,N
1604440995.8,286046996.6,Y
1604441015.6,286046998.5,P
1604441035.5,286047000.6,N
1604441055.3,286046999.8,N
1604441075.1,286047000.0,N
1604441095.9,286047000.7,N
1604441115.7,286046999.0,N
1604441135.5,286046997.0,Y
1604441155.4,286046999.3,P
1604441175.2,286046997.0,P
1604441195.0,286046996.8,N
1604441195.9,286046996.8,N
1604441215.8,286046996.6,N
1604441235.6,286046997.7,N
1604441255.4,286046997.9,N
1604441275.3,286046996.7,N
1604441295.1,286046996.6,Y
1604441296.0,286046996.6,P
1604441315.8,286047000.8,N
1604441335.7,286046999.8,N
1604441355.5,286047000.2,N
1604441375.3,286046999.8,N
1604441395.2,286047000.1,N
1604441415.9,286047001.0,N
1604441435.7,286047000.9,N
1604441455.6,286047002.3,N
1604441475.4,286047002.4,N
1604441495.2,286047001.3,N
1604441515.1,286047001.9,N
1604441516.0,286047001.9,N
1604441535.8,286047001.1,N
1604441555.6,286047002.1,N
1604441575.5,286047000.2,N
1604441595.3,286047002.7,N
1604441615.1,286047000.4,N
1604441635.9,286046999.9,N
1604441655.7,286047000.5,N
1604441675.5,286047001.9,N
1604441695.3,286047002.4,N
1604441715.2,286047000.6,N
1604441735.0,286046999.9,N
1604441735.9,286046999.9,N
1604441755.7,286046999.7,N
1604441775.6,286047002.4,N
1604441795.4,286046999.8,N
1604441815.2,286047000.2,N
1604441835.1,286046999.8,N
1604441836.0,286046999.8,N
1604441855.8,286047002.5,N
1604441875.6,286047001.5,N
1604441895.5,286047001.5,N
1604441915.3,286047001.6,N
1604441935.1,286047001.4,N
1604441955.9,286047004.1,Y
1604441975.7,286047002.0,P
1604441995.6,286047001.9,P
1604442015.4,286047001.8,P
1604442035.2,286047002.0,Y
1604442055.1,286047001.0,P
1604442056.0,286047001.0,N
1604442075.8,286047000.9,N
1604442095.6,286047001.0,Y
1604442115.5,286046998.4,P
1604442135.3,286046999.9,N
1604442155.1,286046999.1,N
1604442175.9,286046998.6,N
1604442195.7,286046998.2,N
1604442215.5,286046998.1,N
1604442235.4,286046998.6,N
1604442255.2,286046998.1,N
1604442275.0,286047000.8,N
1604442275.9,286047000.8,N
1604442295.8,286047000.9,N
1604442315.6,286046999.9,N
1604442335.4,286047001.5,N
1604442355.3,286047002.3,N
1604442375.1,286047000.1,N
1604442376.0,286047000.1,N
1604442395.8,286047000.0,N
1604442415.7,286047000.0,N
1604442435.5,286047000.6,N
1604442455.3,286047001.1,N
1604442475.2,286047001.0,N
1604442495.9,286047000.7,N
1604442515.7,286047001.1,N
1604442535.6,286046998.5,N
1604442555.4,286046998.3,N
1604442575.2,286047000.7,N
1604442595.1,286047000.0,N
1604442596.0,286047000.0,N
1604442615.8,286047000.0,N
1604442635.6,286047002.8,N
1604442655.5,286047002.5,N
1604442675.3,286047002.7,N
1604442695.1,286047001.5,N
1604442715.9,286047004.2,Y
1604442735.7,286047003.8,P
1604442755.5,286047004.1,N
1604442775.4,286047001.8,N
1604442795.2,286047004.3,N
1604442815.0,286047002.1,N
1604442815.9,286047002.1,N
1604442835.8,286047001.5,N
1604442855.6,286047004.1,Y
1604442875.4,286047001.2,P
1604442895.3,286047001.0,N
1604442915.1,286047002.4,P
1604442916.0,286047002.4,Y
1604442935.8,286047001.0,P
1604442955.7,286047001.0,N
1604442975.5,286047000.8,N
1604443025.4,286046998.4,E
1604443035.3,286047000.0,N
1604443055.1,286047000.5,P
1604443075.8,286047002.5,P
1604443095.7,286047001.9,N
1604443115.5,286047002.4,N
1604443135.3,286047002.4,N
1604443155.2,286047002.2,N
1604443175.9,286047001.3,N
1604443195.7,286047003.8,Y
1604443215.6,286047001.8,P
1604443235.4,286047003.9,P
1604443255.2,286047004.0,P
1604443275.1,286047004.4,Y
1604443276.0,286047004.4,P
1604443295.8,286046998.3,N
1604443315.6,286047000.7,N
1604443335.5,286047000.9,N
1604443355.3,286047000.4,N
1604443375.1,286047002.3,N
1604443395.9,286047004.3,N
1604443415.7,286047002.1,N
1604443435.5,286047001.4,N
1604443455.4,286047003.5,N
1604443475.2,286047001.8,N
1604443495.0,286047001.7,N
1604443495.9,286047001.7,N
1604443515.8,286047003.8,N
1604443535.6,286047003.2,N
1604443555.4,286047003.5,N
1604443575.3,286047004.3,N
1604443595.1,286047003.7,N
1604443615.8,286047004.2,N
1604443635.7,286047003.2,N
1604443655.5,286047003.5,N
1604443675.3,286047003.2,N
1604443695.2,286047005.5,Y
1604443715.0,286047003.2,P
1604443715.9,286047003.2,P
1604443735.7,286047003.4,P
1604443755.6,286047003.6,Y
1604443775.4,286047001.4,P
1604443795.2,286047001.8,N
1604443815.1,286047002.1,N
1604443816.0,286047002.1,Y
1604443835.8,286046998.3,P
1604443855.6,286046998.1,N
1604443875.5,286047000.4,N
1604443895.3,286047002.8,N
1604443915.1,286047000.1,N
1604443935.9,286047000.8,N
1604443955.7,286047002.7,N
1604443975.5,286046999.8,N
1604443995.4,286046999.8,N
1604444015.2,286047001.5,N
1604444035.0,286047004.0,N
1604444035.9,286047004.0,N
1604444055.8,286047004.4,N
1604444075.6,286047004.0,N
1604444095.4,286047002.9,N
1604444115.3,286047003.3,N
1604444135.1,286047005.5,N
1604444155.8,286047002.9,N
1604444175.7,286047002.9,N
1604444195.5,286047005.3,N
1604444215.3,286047004.6,N
1604444235.2,286047007.1,Y
1604444255.0,286047003.2,P
1604444255.9,286047003.2,P
1604444275.7,286047003.1,P
1604444295.6,286047003.1,Y
1604444315.4,286046999.9,P
1604444335.2,286047002.3,N
1604444355.1,286047000.2,N
1604444356.0,286047000.2,N
1604444375.8,286046999.7,N
1604444395.6,286047002.6,N
